Presure
124 116 126 119 111 102 121 109 101 113 97 111 108 114 104 119 112 111 115 108 104 109 118 117 120 116 117 114 118 120 122 104 115 125 106 128 102 130 158 152 149 147 152
109 110 111 115 123 122 116 119 120 118 103 106 122 112 104 109 110 109 109 114 114 121 121 107 124 127 98 120 119 115 131 90 104 144 120 129 140 133 152 142 158 156 141
109 97 104 112 121 120 108 111 113 116 125 103 106 106 103 114 103 113 114 115 107 109 117 113 126 124 126 116 102 120 121 147 111 115 117 87 84 116 139 155 162 141 167
100 103 110 108 108 105 105 116 125 121 122 91 124 129 124 97 107 101 115 113 104 117 109 124 121 126 125 124 123 117 120 121 131 125 104 152 120 154 157 150 150 156 164
100 105 101 108 107 106 127 113 112 116 125 118 119 118 122 104 96 107 118 108 113 117 106 117 111 109 124 120 126 119 104 116 115 128 126 132 123 136 161 153 143 151 132
109 95 97 104 105 120 112 100 109 116 113 114 112 123 121 88 121 97 96 120 116 118 109 121 119 106 119 126 121 104 114 127 101 140 127 132 99 137 163 148 137 159 136
130 116 97 115 100 103 107 104 110 105 113 109 116 120 115 122 122 122 122 129 116 104 124 116 111 118 108 123 110 115 121 129 126 143 135 118 130 165 125 161 164 155 137
122 107 109 114 102 117 108 110 110 111 107 111 117 119 117 121 122 125 132 126 112 110 125 102 131 121 122 121 124 111 111 115 122 138 141 111 141 131 136 163 96 178 187
124 131 122 120 119 115 123 113 117 115 105 107 111 110 115 115 116 109 81 122 107 121 107 124 94 110 116 117 119 117 124 113 146 137 125 130 141 147 139 164 145 167 153
123 126 124 135 130 130 109 108 114 113 118 104 102 122 106 119 126 129 106 110 117 117 91 123 125 119 124 113 116 117 119 133 126 124 110 155 161 140 167 126 142 153 166
127 130 129 121 123 117 107 115 119 122 125 109 116 113 108 114 121 123 117 116 117 123 120 127 105 124 98 114 123 109 118 130 121 127 145 135 137 178 119 157 170 167 165
123 123 122 128 130 124 130 120 116 118 117 107 129 122 113 115 126 123 126 132 79 121 122 111 122 126 117 111 129 103 129 138 133 125 146 134 163 167 118 118 180 150 171
135 139 128 125 121 118 127 108 115 118 117 120 118 122 121 126 118 128 118 131 108 133 121 100 127 116 124 103 125 124 140 135 128 158 145 173 136 174 124 177 192 147 164
114 115 132 130 137 133 123 117 117 121 126 122 119 117 127 129 129 103 126 120 140 145 115 97 94 101 97 114 140 124 123 133 152 142 166 168 171 156 129 163 149 167 161
119 112 118 116 128 123 144 145 127 140 140 133 132 131 125 133 129 133 136 131 111 112 125 132 119 118 94 97 104 120 125 138 151 163 176 146 159 154 120 151 123 174 189
129 142 136 135 113 123 148 122 118 123 136 140 131 121 112 134 125 114 142 124 113 112 117 129 87 100 99 87 139 143 157 170 130 165 156 142 165 130 132 175 173 169 152
130 136 146 105 115 151 135 123 116 124 117 111 119 106 120 130 124 129 127 124 135 140 114 125 127 130 116 101 151 125 164 128 143 165 142 157 168 161 165 168 147 182 163
133 124 263 137 131 169 137 127 164 129 125 131 136 120 101 116 123 117 125 131 138 135 131 131 110 145 105 104 110 105 156 131 131 182 163 103 134 179 167 167 146 167 150
108 133 92 93 150 99 138 164 130 120 117 135 146 133 134 115 120 147 106 111 135 147 139 154 138 129 126 154 157 106 133 153 185 159 169 172 182 118 151 135 154 181 191
139 151 140 104 144 120 147 106 122 141 120 135 144 113 139 136 131 104 127 136 130 158 103 135 129 150 139 98 164 173 142 158 179 154 167 159 149 157 155 141 129 177 155
123 151 140 126 141 167 129 136 116 96 113 168 126 132 156 149 144 144 129 137 144 143 120 142 136 137 168 137 134 149 104 141 101 140 112 142 131 148 179 128 172 168 162
180 163 176 169 135 110 148 126 151 200 137 149 147 150 157 126 111 153 126 133 136 97 132 163 122 129 141 141 140 144 161 137 170 120 131 165 149 172 133 134 183 181 170
212 189 179 170 126 170 157 152 147 113 139 161 170 167 133 143 176 142 151 151 147 141 151 144 175 155 157 164 153 120 120 171 125 124 149 100 163 123 170 170 183 173 160
214 209 213 197 179 178 140 154 189 155 153 137 160 156 162 163 164 131 183 152 146 121 151 151 150 142 119 142 164 130 145 125 138 156 164 118 133 153 166 172 155 180 179
231 224 214 210 206 210 198 186 178 169 163 165 169 139 166 166 168 175 157 164 167 182 179 172 161 154 157 175 160 115 181 149 140 106 136 105 143 135 156 152 158 171 172
245 115 231 223 213 205 138 209 198 193 190 187 184 188 172 167 150 179 122 147 170 153 182 182 184 104 161 177 172 157 123 164 172 155 117 132 166 138 169 171 189 175 175
Wind_Speed
6 6 4 7 10 10 8 14 12 14 11 16 17 17 15 19 18 18 18 18 17 20 21 23 24 25 26 26 29 30 33 32 37 39 39 44 26 54 52 57 57 60 61
9 6 7 8 5 5 7 7 8 9 13 12 11 11 13 14 14 17 17 19 20 24 24 23 29 31 25 27 30 29 39 27 34 41 45 47 35 56 57 62 50 56 66
12 10 10 7 7 5 10 12 11 8 9 9 10 10 8 11 13 13 15 17 15 19 23 20 29 29 32 28 32 37 38 45 34 40 45 33 36 54 56 59 57 65 53
17 14 13 12 10 11 13 11 10 13 13 9 13 14 15 10 10 13 15 17 15 21 20 29 27 31 32 34 37 34 40 43 47 47 41 58 51 62 56 62 57 61 57
19 18 17 16 15 15 20 15 17 17 17 18 16 16 17 12 13 13 19 14 19 20 25 24 21 22 33 33 39 37 33 41 43 52 52 57 56 63 62 63 54 63 53
27 21 20 20 18 22 19 16 19 21 20 22 21 22 23 10 22 13 15 22 20 22 18 27 26 25 33 41 38 31 41 51 36 57 57 60 33 62 61 59 65 66 60
36 31 25 28 22 20 23 21 24 21 23 23 24 25 24 26 26 26 27 28 23 17 30 24 24 31 29 42 31 38 47 54 55 59 57 55 60 61 60 63 64 66 62
41 32 33 33 29 32 25 25 27 26 22 25 28 27 28 29 28 30 33 32 25 25 38 26 46 40 43 46 48 38 42 49 56 61 60 54 66 59 67 65 40 63 64
44 43 40 39 37 36 36 31 33 31 25 23 25 27 29 30 30 28 23 35 31 39 29 43 25 36 41 44 48 48 55 50 63 62 59 62 71 64 70 66 67 72 75
47 44 43 47 45 44 33 34 36 36 38 28 21 36 26 35 40 40 33 32 37 40 26 45 47 47 50 45 47 48 52 63 61 63 57 71 66 63 66 69 54 72 76
53 51 50 47 45 43 38 42 44 42 44 34 38 34 30 31 34 41 33 39 39 42 42 48 41 52 31 49 54 47 57 65 58 66 73 64 64 65 64 73 72 78 79
56 55 52 53 53 51 51 46 44 44 42 36 47 43 39 40 43 41 44 39 22 40 42 40 51 52 52 50 63 46 64 69 67 60 74 66 72 67 65 67 75 74 81
64 65 59 59 57 51 54 43 47 47 43 47 45 46 42 49 40 49 39 49 40 47 38 42 49 50 55 41 63 62 70 67 65 73 78 74 68 73 65 81 81 78 87
54 54 66 65 67 65 58 53 54 51 52 49 49 44 52 51 48 37 50 43 59 61 42 36 38 46 37 57 69 63 64 71 80 77 80 81 78 71 65 85 79 91 92
64 58 63 56 67 63 72 72 59 66 61 58 56 53 48 53 47 51 53 52 47 47 56 62 51 50 35 40 50 59 69 78 79 78 72 82 88 80 64 79 70 91 91
69 77 74 74 62 71 81 63 53 53 63 66 55 41 42 54 47 42 62 47 47 49 60 64 29 41 43 34 69 77 77 76 72 84 81 86 87 69 68 90 91 92 79
72 81 90 59 68 73 81 66 54 60 49 48 50 46 49 54 51 59 54 55 61 62 57 74 66 72 55 45 83 72 82 56 85 79 86 80 89 98 89 96 70 98 97
88 75 99 81 71 97 77 58 87 68 62 69 68 55 52 49 54 52 59 60 66 64 62 72 64 82 58 51 60 38 87 81 83 80 84 35 80 92 96 97 70 106 71
55 98 27 34 83 44 76 103 57 54 51 66 77 68 70 54 56 75 49 57 68 75 71 78 80 76 68 90 89 47 83 94 78 84 85 91 94 54 101 68 86 105 109
94 109 106 63 101 62 81 51 68 69 65 67 80 63 75 72 72 55 62 71 69 86 46 71 69 84 84 36 91 86 93 97 74 101 87 89 107 91 108 71 69 113 76
89 106 108 89 100 102 65 92 65 52 62 102 69 71 94 86 79 78 70 73 81 78 59 77 73 75 77 85 86 95 48 90 51 92 52 107 78 100 111 67 108 93 101
124 121 121 111 108 59 108 63 100 116 92 84 85 92 99 69 69 95 66 69 71 43 68 97 67 69 90 90 90 100 100 95 89 64 91 108 116 115 67 66 119 120 116
133 131 130 126 74 119 107 112 98 74 69 106 116 106 77 91 107 89 97 87 89 79 88 88 100 90 95 93 89 73 87 95 77 76 103 39 91 62 119 117 114 123 88
138 136 138 134 130 128 74 111 128 113 111 81 103 100 109 108 107 76 112 102 98 61 97 102 95 85 64 89 99 90 103 85 85 105 106 46 75 88 130 130 80 133 137
139 141 138 137 136 138 137 135 129 126 123 127 130 86 124 120 122 123 99 112 112 114 111 110 102 101 103 99 93 54 80 70 114 59 95 44 64 50 113 111 112 106 132
136 45 139 141 141 139 80 142 138 136 135 134 129 131 128 129 89 132 66 83 121 90 124 122 118 39 102 108 103 100 81 92 87 103 40 55 112 105 134 141 129 137 140
Wind_Direction
326 354 360 357 356 7 17 8 31 11 39 21 26 23 29 24 26 35 28 21 21 20 19 18 13 8 11 7 6 6 3 349 352 356 348 352 329 352 355 355 354 356 356
308 321 329 333 349 346 347 351 360 11 12 10 359 20 15 18 17 17 18 15 12 6 3 2 7 6 347 2 1 358 359 355 347 349 351 353 342 354 355 356 346 352 353
290 311 314 314 315 307 319 323 318 322 335 347 346 348 360 356 8 9 8 7 6 2 2 1 2 2 1 356 344 355 355 352 348 348 347 333 341 348 351 351 345 352 343
293 286 291 295 298 306 309 312 311 311 316 323 328 326 330 344 345 348 357 1 352 355 350 352 357 356 356 355 352 352 353 351 349 346 341 349 349 350 342 352 345 347 342
281 280 292 290 294 300 298 302 307 310 308 312 317 318 321 320 327 338 338 347 345 347 343 346 334 336 350 350 351 349 339 346 346 348 348 351 346 348 341 346 338 344 349
275 288 292 287 291 288 293 307 304 303 309 313 317 314 316 298 320 313 325 329 333 338 325 343 340 323 345 344 345 333 342 345 342 346 346 347 331 342 334 339 341 341 339
267 272 286 276 290 290 293 300 300 307 301 309 309 311 314 317 320 313 320 323 321 304 336 326 327 338 331 341 333 339 345 344 343 341 343 341 343 332 342 333 334 335 337
266 278 275 274 288 277 284 287 290 295 298 304 304 306 307 310 313 315 317 322 311 309 334 305 335 334 335 337 337 333 334 339 340 340 336 336 340 336 340 328 327 327 329
265 264 266 268 270 273 274 282 281 287 291 305 306 310 310 313 313 310 295 324 312 325 315 330 313 327 329 331 335 333 334 334 332 335 337 335 339 331 338 328 333 331 344
265 264 266 266 264 267 281 284 284 286 286 298 300 295 306 308 309 313 306 311 318 320 302 325 326 324 326 325 327 328 330 331 334 334 336 329 328 327 326 330 324 338 336
266 265 263 266 266 269 279 279 278 276 280 290 292 296 298 301 309 306 307 313 312 317 313 320 311 321 325 321 326 328 329 329 329 330 330 330 325 321 328 332 329 331 331
270 270 271 270 267 268 268 269 274 274 275 272 284 292 298 302 303 304 304 303 322 311 309 307 318 320 316 314 322 325 325 323 326 322 328 327 323 321 326 326 318 332 325
264 264 271 270 271 272 271 271 272 274 279 283 285 286 292 292 300 299 299 305 303 308 302 293 314 310 316 310 318 317 320 318 322 320 324 318 322 323 319 323 320 335 330
271 272 269 271 268 270 271 273 273 275 274 278 282 286 286 288 292 287 297 302 301 303 287 302 298 296 308 305 315 313 316 321 320 322 319 318 321 320 318 323 326 324 334
265 268 271 270 277 273 268 268 274 271 274 276 278 280 285 287 296 293 295 300 289 289 297 308 297 307 308 310 304 313 312 318 317 316 311 321 322 323 320 325 322 319 314
262 266 263 264 264 270 268 271 268 273 277 277 276 273 272 283 290 279 293 296 288 291 297 305 289 301 296 312 310 312 313 312 317 314 315 320 314 319 315 311 314 320 330
265 267 265 256 257 266 266 266 267 271 273 269 275 281 279 282 283 287 292 285 291 293 293 301 304 310 308 302 309 306 311 315 316 310 314 308 311 317 312 312 321 316 324
268 260 265 263 255 268 262 262 266 265 267 272 277 272 270 275 283 279 286 291 294 297 300 302 289 304 302 306 302 318 308 311 312 306 308 305 316 303 311 312 317 319 322
260 263 240 255 266 259 260 268 259 261 270 275 276 280 282 266 274 284 275 276 289 294 297 294 299 304 298 301 304 318 309 313 303 306 305 305 305 317 314 309 312 314 312
253 252 264 259 269 257 261 266 273 269 274 273 278 266 275 277 277 269 280 288 283 291 288 295 291 299 299 300 301 301 306 310 305 308 302 303 308 309 311 306 315 313 321
250 250 256 266 265 254 247 266 253 257 269 270 264 277 282 281 283 285 279 280 290 291 292 294 293 296 289 300 301 302 291 304 313 304 318 306 310 307 305 309 309 317 314
249 258 255 251 264 263 268 246 276 261 271 275 276 278 277 265 264 284 272 277 282 287 284 291 281 290 296 298 299 303 301 305 298 320 309 307 309 305 309 312 307 309 316
246 246 250 254 263 249 262 267 270 264 269 278 274 272 271 278 271 281 281 280 286 281 286 287 283 287 290 289 297 296 307 298 304 318 305 295 304 319 302 306 307 309 320
247 246 247 248 254 256 261 262 251 269 275 266 266 278 276 275 273 270 271 278 281 274 283 285 285 285 295 291 292 300 298 301 297 299 302 319 311 309 303 305 312 304 307
247 249 249 250 251 251 252 255 257 261 264 267 269 265 276 276 277 275 272 277 279 279 278 278 278 282 284 283 287 297 290 283 300 295 303 304 309 316 302 315 311 309 308
249 254 248 250 251 252 252 255 254 256 258 260 262 263 268 273 272 273 273 275 281 274 279 280 281 292 287 284 284 287 301 283 280 287 327 320 292 300 293 296 297 300 302